User: anonymous   Login
Location: Unspecified
(0.0000°N, 0.0000°E)
Time: 21:22:34
(UTC+00:00)
Language:

Vanguard 2 Rocket - Orbit

View from above orbital plane
View from above orbital plane
View from above satellite
View from above satellite

Ground track
Ground track

The orbit data is extracted from the following two-line orbital elements,

1 00012U 59001B   24106.49416456  .00002041  00000-0  11928-2 0  9990
2 00012  32.9062 134.7780 1655871 233.3050 110.3875 11.46133283440236
Epoch (UTC): 15 April 2024 11:51:35
Eccentricity: 0.1655871
inclination: 32.9062°
perigee height: 555 km
apogee height: 3307 km
right ascension of ascending node: 134.7780°
argument of perigee: 233.3050°
revolutions per day: 11.46133283
mean anomaly at epoch: 110.3875°
orbit number at epoch: 44023

The dashed part of the orbit path shows where the satellite is in the earth's shadow,  

DLR